[[{"header":{"parameterUnit":"m.s-1","parameterCategory":1,"la1":30.2991,"la2":30.254,"lo1":-89.0895,"lo2":-89.0444,"dy":0.0017,"dx":0.0017,"nx":28,"ny":28,"refTime":"2023-09-07T03:00:00:Z","depth":0,"parameterNumber":2,"parameterNumberName":"U-component_of_WINDS"},"data":[0,0,0,0,0,0,0,0,0,0,0,0,0,0,0,0,0,0,0,0,0,0,0,0,0,0,0,0,0,0,0,0,0,0,0,0,0,0,0,0,0,0,0,0,0,0,0,0,0,0,0,0,0,0,0,0,0,0,2.2737,2.2738,0,2.2848,2.2849,2.285,2.2845,2.2844,2.2842,2.284,2.2953,2.2957,2.2961,0,0,0,0,0,0,0,0,0,0,0,0,0,2.2519,2.2523,2.2737,2.2738,2.274,2.2848,2.2849,2.2851,2.2845,2.2843,2.2842,2.284,2.2951,2.2956,2.2962,0,0,0,0,0,0,0,0,0,0,0,0,0,2.262,2.2524,2.2737,2.275,2.2753,2.2847,2.2849,2.2851,2.2846,2.2843,2.2841,2.2839,2.2949,2.2956,2.2962,2.3051,0,0,2.2983,2.2986,0,0,0,0,0,0,0,0,2.2614,2.2628,2.2747,2.2749,2.2752,2.283,2.2813,2.2918,2.2846,2.281,2.284,2.2838,2.2914,2.2923,2.2949,2.3056,2.3061,2.2983,2.2987,2.299,2.2992,0,0,0,0,0,0,0,2.2607,2.2623,2.2781,2.2749,2.2752,2.275,2.2762,2.2833,2.2874,2.2813,2.2813,2.2826,2.2915,2.2943,2.2952,2.3062,2.2983,2.2989,2.2993,2.2996,2.3244,2.3247,0,0,0,0,0,0,2.2598,2.2617,2.2777,2.2784,2.2676,2.2756,2.2769,2.2808,2.2873,2.2881,2.2828,2.2826,2.2932,2.2944,2.2956,2.3061,2.299,2.2997,2.3,2.3242,2.3245,2.3248,0,0,0,0,0,0,2.2593,2.2612,2.2773,2.2701,2.2721,2.2762,2.2805,2.2811,2.2839,2.2884,2.2891,2.2849,2.2931,2.2946,2.3027,2.3065,2.3,2.3006,2.3239,2.3243,2.3246,2.3274,0,0,0,0,0,0,2.2587,2.261,2.2645,2.2702,2.2725,2.2843,2.2808,2.2815,2.2851,2.2848,2.2906,2.2913,2.293,2.3017,2.3033,2.3073,2.3011,2.3235,2.3241,2.3245,2.327,2.3278,2.3286,0,0,0,0,0,2.2579,2.2649,2.2647,2.2666,2.2769,2.2845,2.2858,2.2877,2.2854,2.2888,2.2917,2.2912,2.3058,2.3025,2.3043,2.3086,2.3233,2.3239,2.3245,2.3266,2.3277,2.3286,0,0,0,0,0,0,2.2595,2.2656,2.2655,2.2745,2.279,2.2844,2.2888,2.2888,2.294,2.2935,2.2955,2.2968,2.3048,2.3076,2.3037,2.3173,2.3143,2.3153,2.3153,2.3163,2.3171,2.3162,2.3016,0,0,0,0,0,2.2609,2.2667,2.2717,2.2791,2.2814,2.2847,2.2881,2.2891,2.2938,2.2957,2.2992,2.3037,2.3093,2.313,2.3184,2.3274,2.3285,2.3312,2.332,2.3327,2.3334,2.3381,2.3393,2.3267,2.3267,2.3267,0,0,2.2639,2.2679,2.2714,2.2796,2.2831,2.2889,2.2863,2.2926,2.2968,2.2966,2.3044,2.3071,2.3123,2.3208,2.3247,2.3233,2.3372,2.3334,2.3339,2.3343,2.3389,2.34,2.3411,2.3271,2.327,2.327,0,0,2.2722,2.2759,2.2825,2.2861,2.2915,2.2937,2.2952,2.3007,2.3025,2.3103,2.3102,2.3152,2.325,2.3286,2.3317,2.3412,2.3408,2.3429,2.347,2.3516,2.3526,2.3534,2.3566,2.3578,2.3437,2.3437,2.3437,0,2.2752,2.2839,2.2858,2.2921,2.2955,2.2956,2.3022,2.3056,2.3125,2.3149,2.3132,2.3252,2.3288,2.338,2.3403,2.3429,2.3446,2.3422,2.3523,2.3532,2.354,2.3571,2.3583,2.3439,2.3439,2.3439,2.3439,0,2.2872,2.2932,2.2978,2.3045,2.3085,2.3149,2.3176,2.3214,2.3221,2.3244,2.3322,2.3364,2.3426,2.3449,2.3456,2.3542,2.3531,2.3519,2.3488,2.3554,2.3583,2.3595,2.3442,2.3442,2.3441,2.344,0,0,2.2969,2.3044,2.306,2.3089,2.3149,2.3196,2.3258,2.3319,2.335,2.3398,2.345,2.3531,2.3519,2.3555,2.3566,2.3606,2.3676,2.3589,2.359,2.3601,2.377,2.3777,2.3791,2.3674,2.3677,2.3679,2.3765,0,2.3056,2.3168,2.3186,2.3283,2.3338,2.3339,2.3394,2.3435,2.3458,2.3507,2.3532,2.3589,2.357,2.3591,2.3631,2.3659,2.371,2.3653,2.3721,2.3723,2.3706,2.3806,2.3815,2.3894,2.3776,2.3778,2.378,0,2.3173,2.3223,2.3326,2.3376,2.34,2.3449,2.3504,2.3552,2.3599,2.3612,2.3651,2.3657,2.3721,2.3688,2.3775,2.3736,2.3765,2.3783,2.3786,2.3792,2.3754,2.3812,2.392,2.3931,2.3798,2.3797,2.3795,0,2.323,2.3324,2.3396,2.3422,2.3483,2.3517,2.3544,2.3588,2.3623,2.3671,2.3693,2.3749,2.3779,2.3821,2.3842,2.3816,2.3926,2.3896,2.3938,2.3937,2.396,2.3958,2.4071,2.3982,2.3982,2.3981,2.3981,0,2.3325,2.3387,2.3423,2.3467,2.3536,2.3556,2.3624,2.365,2.3689,2.3738,2.3743,2.3789,2.3814,2.3862,2.3879,2.3947,2.3961,2.3973,2.3976,2.3971,2.3969,2.3989,2.3983,2.3985,2.3984,2.3983,2.3983,0,2.34,2.3427,2.3506,2.3557,2.3571,2.3619,2.3662,2.3705,2.3727,2.3789,2.3804,2.3839,2.3897,2.3921,2.3993,2.4004,2.4081,2.4081,2.4065,2.4065,2.4105,2.41,2.4234,2.4251,2.4152,2.4153,2.4153,0,2.3458,2.3506,2.3561,2.3594,2.3622,2.3676,2.371,2.3731,2.3767,2.3823,2.3859,2.3916,2.3963,2.4055,2.4086,2.414,2.414,2.4183,2.4148,2.4141,2.4138,2.4134,2.4138,2.4189,2.419,2.4191,2.4191,0,2.3557,2.3567,2.3618,2.3672,2.3713,2.3757,2.38,2.3827,2.3854,2.3894,2.3953,2.3989,2.4061,2.4117,2.4173,2.42,2.4199,2.4202,2.4214,2.4209,2.4197,2.4201,2.408,2.4199,2.4198,2.4198,2.4197,2.4197,2.3624,2.3665,2.371,2.3766,2.38,2.3839,2.3881,2.3908,2.3958,2.4018,2.4027,2.4089,2.4133,2.4207,2.4236,2.4284,2.4273,2.4291,2.4296,2.4299,2.43,2.4191,2.4295,2.4294,2.4294,2.4294,2.4294,0,2.3721,2.375,2.3801,2.386,2.3903,2.39,2.3946,2.3982,2.4037,2.4078,2.4123,2.419,2.4244,2.4279,2.4333,2.4365,2.4366,2.4378,2.4375,2.4381,2.4308,2.4291,2.4376,2.4376,2.4376,2.4376,2.4376,2.4376,2.3777,2.3846,2.3861,2.3947,2.3975,2.4036,2.4062,2.4098,2.4131,2.4204,2.4249,2.4272,2.431,2.4367,2.4416,2.4425,2.4444,2.4456,2.4464,2.4395,2.4386,2.4378,2.4362,2.4461,2.4461,2.4532,2.4533,2.4533]},{"header":{"parameterUnit":"m.s-1","parameterCategory":1,"la1":30.2991,"la2":30.254,"lo1":-89.0895,"lo2":-89.0444,"dy":0.0017,"dx":0.0017,"nx":28,"ny":28,"refTime":"2023-09-07T03:00:00:Z","depth":0,"parameterNumber":3,"parameterNumberName":"V-component_of_WINDS"},"data":[0,0,0,0,0,0,0,0,0,0,0,0,0,0,0,0,0,0,0,0,0,0,0,0,0,0,0,0,0,0,0,0,0,0,0,0,0,0,0,0,0,0,0,0,0,0,0,0,0,0,0,0,0,0,0,0,0,0,-0.1325,-0.1324,0,-0.128,-0.128,-0.1279,-0.1267,-0.1267,-0.1267,-0.1267,-0.1219,-0.1218,-0.1216,0,0,0,0,0,0,0,0,0,0,0,0,0,-0.1397,-0.1396,-0.1325,-0.1324,-0.1324,-0.128,-0.128,-0.1279,-0.1267,-0.1267,-0.1267,-0.1267,-0.122,-0.1218,-0.1216,0,0,0,0,0,0,0,0,0,0,0,0,0,-0.1361,-0.1396,-0.1325,-0.1312,-0.1311,-0.1281,-0.128,-0.1279,-0.1266,-0.1267,-0.1267,-0.1268,-0.122,-0.1218,-0.1216,-0.1194,0,0,-0.1209,-0.1208,0,0,0,0,0,0,0,0,-0.1363,-0.1358,-0.1315,-0.1313,-0.1311,-0.1279,-0.1288,-0.1251,-0.1266,-0.1283,-0.1267,-0.1268,-0.1239,-0.1235,-0.1226,-0.1192,-0.119,-0.1209,-0.1207,-0.1206,-0.1206,0,0,0,0,0,0,0,-0.1365,-0.136,-0.1307,-0.1314,-0.1312,-0.1308,-0.1304,-0.1281,-0.1259,-0.1282,-0.1281,-0.1276,-0.1238,-0.1228,-0.1225,-0.1189,-0.1209,-0.1207,-0.1205,-0.1205,-0.1137,-0.1137,0,0,0,0,0,0,-0.137,-0.1362,-0.1309,-0.1306,-0.1339,-0.1307,-0.1301,-0.1289,-0.126,-0.1256,-0.1276,-0.1275,-0.1232,-0.1227,-0.1223,-0.1196,-0.1207,-0.1204,-0.1203,-0.1137,-0.1137,-0.1136,0,0,0,0,0,0,-0.1372,-0.1366,-0.131,-0.1334,-0.1326,-0.1305,-0.1292,-0.1288,-0.1278,-0.1255,-0.1251,-0.1269,-0.1232,-0.1226,-0.1202,-0.1194,-0.1203,-0.1201,-0.1138,-0.1137,-0.1137,-0.1143,0,0,0,0,0,0,-0.1374,-0.1366,-0.1358,-0.1334,-0.1325,-0.1291,-0.1291,-0.1287,-0.1275,-0.1274,-0.1248,-0.1244,-0.1232,-0.1206,-0.12,-0.1191,-0.12,-0.1138,-0.1138,-0.1137,-0.1143,-0.1142,-0.1142,0,0,0,0,0,-0.1377,-0.1361,-0.1358,-0.1351,-0.1315,-0.129,-0.1285,-0.1272,-0.1274,-0.1266,-0.1251,-0.1245,-0.1196,-0.1203,-0.1197,-0.1187,-0.1139,-0.1138,-0.1137,-0.1143,-0.1142,-0.1142,0,0,0,0,0,0,-0.1384,-0.1357,-0.1354,-0.1329,-0.1312,-0.1288,-0.1277,-0.1271,-0.1253,-0.1253,-0.1236,-0.1231,-0.1208,-0.1195,-0.1203,-0.1166,-0.1167,-0.1165,-0.1175,-0.1174,-0.1173,-0.1176,-0.1198,0,0,0,0,0,-0.1383,-0.1366,-0.1343,-0.1324,-0.1316,-0.1298,-0.1287,-0.1278,-0.126,-0.1252,-0.1235,-0.1217,-0.1197,-0.1185,-0.1166,-0.1141,-0.1136,-0.1132,-0.1131,-0.1131,-0.1129,-0.1116,-0.1114,-0.1133,-0.1133,-0.1133,0,0,-0.138,-0.1363,-0.1353,-0.1325,-0.1311,-0.1293,-0.1292,-0.1273,-0.126,-0.1249,-0.1225,-0.1213,-0.1191,-0.1167,-0.1156,-0.1156,-0.1123,-0.113,-0.113,-0.1128,-0.1115,-0.1113,-0.1111,-0.1133,-0.1133,-0.1133,0,0,-0.1366,-0.1352,-0.1335,-0.1321,-0.13,-0.1288,-0.1284,-0.1261,-0.1253,-0.1229,-0.1221,-0.1205,-0.1172,-0.1157,-0.1145,-0.1127,-0.1121,-0.1121,-0.1117,-0.1105,-0.1103,-0.1102,-0.1096,-0.1094,-0.1119,-0.1119,-0.1119,0,-0.1364,-0.1338,-0.1326,-0.1308,-0.1296,-0.1287,-0.1269,-0.1256,-0.123,-0.1221,-0.1222,-0.1182,-0.1166,-0.1139,-0.1135,-0.1126,-0.112,-0.1124,-0.1105,-0.1103,-0.1102,-0.1095,-0.1093,-0.112,-0.112,-0.112,-0.112,0,-0.1338,-0.132,-0.1309,-0.1285,-0.1272,-0.1254,-0.1239,-0.1227,-0.122,-0.1208,-0.1185,-0.1166,-0.1144,-0.1137,-0.1129,-0.1109,-0.111,-0.1108,-0.1109,-0.11,-0.1094,-0.1092,-0.112,-0.112,-0.112,-0.112,0,0,-0.1326,-0.1297,-0.1293,-0.1282,-0.1259,-0.1244,-0.1227,-0.1206,-0.1196,-0.1178,-0.1163,-0.1136,-0.1134,-0.1121,-0.1112,-0.1101,-0.1089,-0.11,-0.11,-0.1099,-0.1065,-0.1067,-0.1064,-0.1085,-0.1085,-0.1084,-0.1067,0,-0.1309,-0.1277,-0.1266,-0.124,-0.1224,-0.1215,-0.12,-0.1184,-0.1173,-0.1157,-0.1145,-0.1126,-0.1126,-0.1118,-0.1107,-0.1093,-0.1082,-0.1094,-0.107,-0.1069,-0.1075,-0.1061,-0.1062,-0.1047,-0.1065,-0.1064,-0.1064,0,-0.1284,-0.1268,-0.124,-0.122,-0.1213,-0.1199,-0.118,-0.1165,-0.1147,-0.1139,-0.1126,-0.1118,-0.1099,-0.1102,-0.1076,-0.1084,-0.1074,-0.1066,-0.1065,-0.1062,-0.1066,-0.1057,-0.1042,-0.104,-0.106,-0.1061,-0.1061,0,-0.1278,-0.1249,-0.1229,-0.122,-0.1196,-0.1187,-0.1177,-0.1159,-0.1147,-0.113,-0.1123,-0.1103,-0.1092,-0.1078,-0.1065,-0.1068,-0.104,-0.1042,-0.1033,-0.1033,-0.1027,-0.1027,-0.1009,-0.1021,-0.1021,-0.1021,-0.1021,0,-0.126,-0.1243,-0.1226,-0.1214,-0.1195,-0.1183,-0.1165,-0.1154,-0.1139,-0.1124,-0.1115,-0.1102,-0.1086,-0.107,-0.106,-0.104,-0.1035,-0.1028,-0.1026,-0.1029,-0.103,-0.1022,-0.1022,-0.102,-0.102,-0.102,-0.1021,0,-0.125,-0.1237,-0.1215,-0.1195,-0.119,-0.1177,-0.116,-0.1147,-0.1137,-0.1118,-0.1113,-0.1096,-0.1077,-0.1063,-0.1038,-0.1032,-0.101,-0.1008,-0.1017,-0.1015,-0.1007,-0.1008,-0.0983,-0.0979,-0.0994,-0.0994,-0.0994,0,-0.1239,-0.1226,-0.1205,-0.1195,-0.1185,-0.1169,-0.1158,-0.1146,-0.1134,-0.1113,-0.1104,-0.1084,-0.1068,-0.1038,-0.1024,-0.1005,-0.1002,-0.0994,-0.0999,-0.1003,-0.1002,-0.1002,-0.1001,-0.0993,-0.0993,-0.0993,-0.0993,0,-0.1221,-0.1216,-0.12,-0.1183,-0.117,-0.1155,-0.114,-0.1132,-0.1118,-0.1105,-0.1086,-0.1074,-0.105,-0.1031,-0.1011,-0.0999,-0.0994,-0.0992,-0.0989,-0.0992,-0.0998,-0.0995,-0.1015,-0.0992,-0.0992,-0.0993,-0.0993,-0.0993,-0.1209,-0.1198,-0.1182,-0.1165,-0.1153,-0.114,-0.1128,-0.1117,-0.1101,-0.1081,-0.1074,-0.1055,-0.1038,-0.1011,-0.1,-0.0984,-0.0984,-0.098,-0.0979,-0.0978,-0.0978,-0.1001,-0.0981,-0.0981,-0.0981,-0.0981,-0.0981,0,-0.1191,-0.1181,-0.1166,-0.1146,-0.1133,-0.113,-0.1114,-0.1103,-0.1086,-0.1071,-0.1056,-0.1035,-0.1017,-0.1002,-0.0983,-0.0974,-0.0971,-0.0969,-0.0969,-0.0967,-0.0979,-0.0984,-0.0972,-0.0972,-0.0972,-0.0972,-0.0972,-0.0972,-0.118,-0.1161,-0.1154,-0.1129,-0.1119,-0.1101,-0.1092,-0.108,-0.1068,-0.1045,-0.1031,-0.1021,-0.1006,-0.0986,-0.097,-0.0966,-0.0959,-0.0958,-0.0954,-0.0965,-0.0966,-0.0967,-0.0971,-0.0957,-0.0957,-0.0943,-0.0943,-0.0943]}]]